Location: ????????
(55.7667°N, 37.4833°E)
Time: 18:10:21
(UTC+00:00)

Cosmos 2333 Rocket - Pass Details

Date: 19 May 2025
Orbit: 840 x 862 km, 70.8° (Epoch: 21 June)

Event Time Altitude Azimuth Distance (km) Brightness Sun altitude
Rises 20:20:50 0° 324° (NW) 3,445 6.8 -13.0°
Reaches altitude 10° 20:23:19 10° 326° (NNW) 2,503 5.9 -13.1°
Maximum altitude 20:29:05 76° 53° (NE) 886 2.4 -13.3°
Enters shadow 20:33:55 15° 138° (SE) 2,150 3.8 -13.5°
